Location: ??
(34.7707°N, 135.6540°E)
Time: 05:45:19
(UTC+00:00)

H-2A R/B - Pass Details

Date: 09 April 2020
Orbit: 578 x 654 km, 98.5° (Epoch: 05 June)

Event Time Altitude Azimuth Distance (km) Brightness Sun altitude
Exits shadow 18:01:45 19° 353° (N) 1,420 4.1 -29.3°
Drops below altitude 10° 18:02:59 10° 351° (N) 1,919 4.8 -29.1°
Sets 18:05:08 0° 350° (N) 2,815 5.7 -28.7°
